Location: Houhaj�rvi
(61.2833°N, 23.0000°E)
Time: 04:38:04
(UTC+00:00)

Cosmos 2297 Rocket - Pass Details

Date: 27 February 2020
Orbit: 838 x 845 km, 71.0° (Epoch: 02 April)

Event Time Altitude Azimuth Distance (km) Brightness Sun altitude
Rises 17:52:06 0° 318° (NW) 3,418 6.3 -15.8°
Reaches altitude 10° 17:54:34 10° 317° (NW) 2,480 5.5 -16.1°
Maximum altitude 18:00:14 73° 234° (SW) 889 2.4 -16.8°
Enters shadow 18:04:55 15° 152° (SSE) 2,110 3.9 -17.3°
